Location: Rancho Del Sol Observatory
(38.7214°N, 120.6350°W)
Time: 03:21:39
(UTC-08:00)

A-11 Canister half - Pass Details

Date: 30 January 2020
Orbit: 1517 x 1683 km, 47.2° (Epoch: 25 February)

Event Time Altitude Azimuth Distance (km) Brightness Sun altitude
Rises 20:13:20 0° 203° (SSW) 4,823 11.8 -33.6°
Reaches altitude 10° 20:16:46 10° 196° (SSW) 3,815 11.2 -34.3°
Enters shadow 20:21:31 28° 174° (S) 2,652 10.1 -35.2°
